Location: Heisede
(52.2582°N, 9.8523°E)
Time: 23:22:55
(UTC+00:00)

Meteor 2-5 Rocket - Visible Passes

Search period start: 18 April 2026 00:00
Search period end: 28 April 2026 00:00
Orbit: 831 x 911 km, 81.2° (Epoch: 18 April)

Date Brightness Start Highest point End Pass type
(mag) Time Alt. Az. Time Alt. Az. Time Alt. Az.
18 Apr 6.1 19:11:58 10° NNW 19:16:26 25° W 19:20:55 10° SW visible
19 Apr 6.2 19:06:06 10° NW 19:10:30 25° W 19:14:55 10° SW visible
20 Apr 6.3 19:00:13 10° NW 19:04:34 24° W 19:08:56 10° SW visible
